TIANMU-1 08

Last updated on Tue Sep 22 2026 00:02:54 GMT+0000 (Coordinated Universal Time)

1 57400U 23101B 26264.64587924 .00003743 00000+0 12842-3 0 9994 2 57400 97.2494 312.8691 0005227 125.2509 234.9222 15.30753492176392
UTC large
Height (km)
Speed (km/s)
/
Latitude / Longitude
Inclination (degrees)
Orbital Period (minutes)
Azimuth
Elevation
Range (km)
Doppler Factor

Next 0 passes for location: London (51.5072 / 0.1276)

No passes found over London.
TIANMU-1 08